北斗三号 M21 (BEIDOU 3M21)

导读

BEIDOU-3 M22 是中国北斗三号全球卫星导航系统中的一颗中圆地球轨道(MEO)卫星,属于北斗三号的组成部分之一。该卫星主要用于提供高精度定位、导航和授时服务,增强北斗系统的全球覆盖能力与稳定性。其发射进一步完善了北斗三号星座布局,提升了系统在亚太及全球范围的性能。该卫星采用先进的导航载荷与技术,具备良好的抗干扰能力和信号稳定性,为交通运输、通信、农业、应急救援等多个领域提供关键支持。

基本信息
目录编号:
44793
目录名称:
BEIDOU 3M21
国际标识:
2019-078A
轨道中心:
EARTH
卫星名称:
北斗三号 M21
卫星全名:
北斗三号 M21 (BEIDOU 3M21)
卫星状态:
在轨 (已飞行2395 天)
发射日期:
2019-11-23 UTC
国别 :
中国 (CN)
星等 :
--
轨道信息
数据来源 国际轨道数据 AOE轨道数据
星历时间 2026-06-13T15:45:52+0800
1天前
查看轨道信息
2026-06-14T04:00:00+0800
13小时前
查看轨道信息
半长轴 27906.569km 27906.609km
偏心率 0.0006438 0.0006518
轨道倾角 53.940° 53.939°
近地点辐角 50.564° 50.149°
升交点赤经 299.965° 299.946°
平近点角 309.477° 291.688°
近地点 21510.465km 21510.282km
远地点 21546.399km 21546.662km
周期 773.249分钟 773.251分钟
每日圈数 1.862272 1.862268
详细信息
平衡模式:
三轴稳定
制造商(研发单位):
中国科学院
制造商所在国:
中国
使用方式:
暂无
工作目标:
为全球用户提供连续、稳定、可靠的北斗导航、定位服务
预期寿命:
12年
卫星简介
北斗卫星导航系统是中国着眼于国家安全和经济社会发展需要,自主建设运行的全球卫星导航系统,是为全球用户提供全天候、全天时、高精度的定位、导航和授时服务的国家重要时空基础设施。该卫星仍在工作。
2D轨道图
3D轨道图
轨道高度分析图
轨道倾角分析图
轨道综合分析图
查看轨道综合分析图